Starlink 11468

operational
NORAD ID: 62221 Int'l Des: 2024-231 Owner: SPXS Country: US Constellation: starlink
LEOCIRCULAR

Über Starlink 11468

Beschreibung wird geladen...

Live-Position

3D-Globus wird geladen...

Nächste Überflüge

Höhenverlauf

Altitude vs Time

uPlot chart will show altitude changes over time

Zweizeiliger Elementsatz

1 62221U 24231D 25259.91158262 .00159024 00000-0 12914-2 0 9992
2 62221 53.1560 238.2252 0001188 90.3335 269.7819 15.69729220 46117
Epoch: 16. Sept. 2025 • Age: 23 hours

Aktueller Status

Höhe 359.8 km
Geschwindigkeit 7.70 km/s
Subsatellitenpunkt 28.49°N, 53.97°W
Startdatum 5. Dez. 2024
Alter 0.7 years
Typ internet

Technische Details

Klassifizierung Payload
Masse 960.00 kg
Trockenmasse 910.00 kg
Gesamtmasse 960.00 kg
Länge 0.30 m
Durchmesser 4.10 m
Spannweite 29.00 m
Form Box + pan
Hersteller SPXS
Bus-Typ Starlink V2MD
Phasenstatus In Orbit
Besitzer/Staat SPXS/US

Große Konstellationen

Loading constellations...